Location: Tel Aviv
(32.0670°N, 34.7670°E)
Time: 12:48:24
(UTC+02:00)

Envisat - Pass Details

Date: 01 December 2021
Orbit: 764 x 766 km, 98.2° (Epoch: 19 January)

Event Time Altitude Azimuth Distance (km) Brightness Sun altitude
Rises 04:26:37 0° 14° (NNE) 3,235 6.3 -24.3°
Reaches altitude 10° 04:28:56 10° 17° (NNE) 2,305 5.5 -23.8°
Maximum altitude 04:34:00 72° 101° (ESE) 806 3.2 -22.8°
Drops below altitude 10° 04:39:03 10° 186° (S) 2,291 5.5 -21.7°
Sets 04:41:21 0° 188° (S) 3,213 6.3 -21.3°
